Location: Prouville
(50.1479°N, 2.1277°E)
Time: 11:14:38
(UTC+00:00)

Daily predictions for brighter satellites

Satellite Brightness Start Highest point End
(mag) Time Altitude Azimuth Time Altitude Azimuth Time Altitude Azimuth
Cosmos 1821 Rocket 4.0 19:16:29 10° N 19:22:40 69° ENE 19:28:44 10° SSE
Nadezhda 3 Rocket 4.4 19:17:07 10° SSE 19:22:48 41° E 19:28:31 10° NNE
Cosmos 2218 Rocket 4.4 19:16:48 10° NNW 19:23:13 76° W 19:29:32 10° S
SPOT 1/Viking Rocket 3.8 19:21:54 10° S 19:27:07 78° WSW 19:32:23 10° NNW
USA 267 3.3 19:20:54 10° ENE 19:27:29 76° SE 19:34:02 10° SW
Okean O Rocket 1.6 19:26:50 10° SSE 19:31:09 69° ENE 19:35:32 10° N
Feng Yun 1-1 Rocket 4.3 19:26:34 10° SSE 19:32:08 88° ENE 19:37:54 10° NNW
Cosmos 1486 Rocket 4.0 19:29:05 10° NNW 19:34:20 81° ENE 19:39:32 10° SSE
Cosmos 1782 Rocket 4.1 19:30:35 10° SSW 19:34:56 65° WNW 19:39:21 10° N
CZ-4 R/B 2.4 19:32:29 10° S 19:36:16 46° W 19:40:00 10° NNW
Cosmos 1536 Rocket 4.1 19:37:00 10° N 19:41:13 42° ENE 19:45:26 10° SE
SJ 16-02 3.6 19:38:48 10° NW 19:42:19 25° W 19:45:49 10° SSW
DELTA 2 DEB (DPAF) 3.9 19:41:37 10° NNE 19:45:52 76° ESE 19:50:05 10° S
Resurs 01 Rocket 1.7 19:41:30 10° SSE 19:45:55 85° WSW 19:50:23 10° NNW
CENTAUR R/B 4.1 19:41:26 10° NW 19:48:26 38° NNE 19:56:32 10° E
NOSS 3-1 (A) 3.2 19:46:38 10° SSW 19:51:28 55° ESE 19:57:17 10° NE
Cosmos 1300 Rocket 4.5 19:49:06 10° SSW 19:53:23 53° WNW 19:57:44 10° N
ERS-1 Rocket 4.0 19:51:26 12° ESE 19:55:17 30° ENE 19:59:39 10° N
Tiangong 0.1 19:56:33 10° S 19:57:17 11° SSE 19:57:17 11° SSE
Cosmos 1934 Rocket 4.1 19:54:02 10° N 20:00:07 59° ENE 20:06:16 10° SSE
USA 229 DEB 4.2 19:55:30 10° S 20:00:39 29° ESE 20:06:12 10° ENE
USA 229 4.3 19:55:37 10° S 20:00:46 29° ESE 20:06:17 10° ENE
Cosmos 2151 Rocket 3.7 19:58:35 10° S 20:02:53 56° E 20:07:15 10° NNE
USA 234 3.8 19:58:35 10° SE 20:04:56 54° SW 20:11:20 10° WNW
USA 281 3.3 19:59:27 10° SSE 20:06:03 88° WSW 20:12:40 10° NNW
ATLAS CENTAUR R/B 2.9 20:04:14 10° NNW 20:07:13 22° NNE 20:09:58 12° E
Cosmos 2227 Rocket 3.1 20:03:04 10° NNW 20:08:19 36° NE 20:12:21 16° ESE
NOSS 3-1 (C) 3.7 20:06:52 10° WSW 20:11:56 65° NW 20:18:08 10° NE
Iridium 2 3.1 20:09:41 10° N 20:12:36 53° E 20:14:16 22° SSE
SL-4 R/B 1.6 20:12:03 10° WNW 20:15:42 78° N 20:17:57 20° E
Cosmos 371 Rocket 3.4 20:12:06 10° NNW 20:16:55 75° WSW 20:21:07 13° SSE
Landsat 4 3.9 20:17:01 23° SE 20:18:54 47° ENE 20:22:20 10° N
MetOp-B 4.1 20:15:38 14° SSE 20:20:16 72° ENE 20:25:38 10° NNW
Cosmos 1697 Rocket 3.9 20:18:57 19° SE 20:20:45 22° E 20:24:59 10° NE
Cosmos 304 Rocket 3.8 20:15:57 10° NNW 20:20:45 83° WSW 20:24:31 16° SSE
Cosmos 1777 Rocket 4.1 20:16:03 10° NNW 20:21:21 81° WSW 20:25:46 15° SSE
COSMOS 2455 3.0 20:17:49 10° NNW 20:23:51 65° NE 20:27:59 21° SE
Alouette 2 Rocket 4.4 20:16:11 10° NNW 20:24:06 83° ENE 20:28:14 16° SSE
Okean 2 Rocket 3.1 20:20:26 10° S 20:24:56 86° ESE 20:29:28 10° N
ATLAS 3B R/B 2.9 20:18:09 10° SW 20:25:19 89° NW 20:33:02 10° NE
NOSS 8 (E) 4.4 20:27:24 10° NW 20:30:26 68° NE 20:32:00 30° ESE
SPOT 5 3.0 20:26:03 16° SSE 20:30:27 83° ENE 20:35:42 10° NNW
IRS-1A Rocket 4.4 20:28:48 16° SSE 20:33:34 81° ENE 20:39:26 10° NNW
Cosmos 405 Rocket 3.6 20:33:26 27° ESE 20:33:51 28° E 20:37:04 10° NNE
CZ-4C R/B 3.1 20:30:05 10° NW 20:36:52 65° NE 20:42:37 21° ESE
Cosmos 2297 Rocket 2.2 20:31:15 10° NNW 20:36:57 88° ENE 20:40:35 23° SSE
BlueWalker 3 1.9 20:34:15 10° SW 20:37:59 54° SSE 20:40:36 18° ENE
Spot 2 Rocket 3.7 20:36:25 25° SE 20:39:12 54° ENE 20:44:08 10° N
Cosmos 1354 Rocket 4.5 20:36:39 10° NNW 20:41:55 60° WSW 20:45:57 17° S
Terra 1.9 20:40:08 27° SE 20:42:37 60° ENE 20:47:17 10° N
Cosmos 1656 3.5 20:38:04 10° SSW 20:43:36 71° ESE 20:49:05 10° NNE
Cosmos 1455 Rocket 3.5 20:46:45 32° SE 20:48:03 41° E 20:52:11 10° NNE
Okean 1 Rocket 3.1 20:43:59 11° S 20:48:17 88° W 20:52:47 10° N
Sich 1 Rocket 4.3 20:44:21 10° SSW 20:48:41 56° WNW 20:53:06 10° N
ATLAS 5 CENTAUR R/B 3.0 20:45:45 10° W 20:48:53 31° NNW 20:52:28 10° NNE
Iridium 4 Rocket 3.7 20:44:01 12° S 20:49:17 90° W 20:55:10 10° N
Cosmos 332 Rocket 3.7 20:44:34 10° NNW 20:49:27 86° ENE 20:51:53 30° SSE
USA 245 3.7 20:46:54 24° SSE 20:49:59 83° ENE 20:54:17 10° NNW
Cosmos 2219 3.9 20:46:25 10° NNW 20:51:49 43° NE 20:54:33 26° ESE
Okean-O 3.9 20:48:43 10° SSW 20:52:48 37° W 20:56:55 10° NNW
CZ-4C R/B 4.2 20:52:13 10° N 20:55:29 41° WNW 20:58:39 10° SW
Ariane Rocket 2.9 20:56:31 31° SSE 20:59:00 78° ENE 21:04:04 10° NNW
Cosmos 1437 Rocket 2.7 20:55:28 10° N 20:59:22 67° ENE 21:00:22 46° SE
Cosmos 1763 Rocket 3.5 20:57:45 24° S 21:00:39 56° ESE 21:05:41 10° NNE
Cosmos 2263 Rocket 3.1 20:58:25 10° NNW 21:03:38 37° NE 21:06:06 25° E
Cosmos 44 3.4 21:00:00 10° SSW 21:05:23 72° SE 21:10:41 10° NE
Okean O Rocket 4.3 21:05:20 10° SW 21:07:55 15° W 21:10:32 10° NW
Cosmos 990 Rocket 3.9 21:04:30 10° NNW 21:09:43 81° WSW 21:11:52 36° SSE
Cosmos 2082 4.5 21:04:49 10° NNW 21:10:09 40° NE 21:12:29 28° E
USA 267 3.9 21:04:00 10° ENE 21:10:24 58° NNW 21:16:47 10° W
ARGOS Delta rocket 4.1 21:08:36 35° SSE 21:10:51 69° ENE 21:16:18 10° N
Cosmos 2173 Rocket 4.4 21:08:26 10° N 21:14:39 50° ENE 21:17:01 34° SE
NOSS 3-2 (A) 4.4 21:07:56 10° NW 21:14:48 54° NE 21:19:58 23° ESE
Cosmos 1605 Rocket 4.2 21:08:33 10° NNW 21:14:56 70° W 21:19:09 22° S
Aureole 1 Rocket 2.2 21:13:09 10° NNW 21:15:56 75° NNW 21:15:56 75° NNW
Meteor 2-3 Rocket 4.4 21:12:42 10° N 21:18:03 40° ENE 21:19:41 33° ESE
Cosmos 540 Rocket 3.4 21:18:45 40° SSE 21:20:22 60° ESE 21:25:25 10° NNE
Cosmos 1153 Rocket 4.4 21:16:41 10° N 21:23:03 86° E 21:25:55 35° SSE
Cosmos 2058 2.6 21:22:02 10° N 21:26:05 77° E 21:26:27 69° SE
MOS 1 Rocket 3.0 21:25:21 58° SE 21:26:09 79° ENE 21:30:34 10° N
Cosmos 1626 Rocket 3.8 21:24:22 10° N 21:28:42 53° ENE 21:29:06 51° E
Cosmos 372 Rocket 4.1 21:25:36 10° NNW 21:30:50 66° ENE 21:32:09 48° ESE
Cosmos 468 Rocket 3.8 21:31:31 43° S 21:33:12 72° ESE 21:38:25 10° NNE
ERS-1 Rocket 3.8 21:31:22 25° SSW 21:33:54 44° W 21:38:42 10° NNW
Cosmos 1802 Rocket 4.3 21:31:01 10° N 21:37:10 54° ENE 21:38:59 41° ESE
SPOT 3 Rocket 3.9 21:35:46 34° SSW 21:37:50 58° W 21:42:58 10° NNW
CENTAUR R/B 3.3 21:32:12 10° NW 21:40:18 80° NE 21:44:48 35° SE
Landsat 5 3.3 21:38:33 10° NNE 21:42:49 89° WNW 21:43:13 73° SSW
Cosmos 1869 4.3 21:43:57 35° NE 21:43:57 35° NE 21:46:34 10° NNE
Cosmos 841 Rocket 3.9 21:43:35 43° E 21:43:35 43° E 21:48:04 10° NE
Cosmos 2016 Rocket 4.3 21:38:29 10° N 21:44:27 51° ENE 21:45:55 42° ESE
ATLAS CENTAUR R/B 1.3 21:41:35 10° NW 21:45:04 65° W 21:45:04 65° W
Cosmos 1844 Rocket 4.4 21:43:22 10° NNW 21:47:47 23° NE 21:50:31 16° ENE
Intercosmos 25 3.2 21:43:23 10° N 21:48:13 87° ENE 21:48:13 87° ENE
Cosmos 1544 Rocket 3.5 21:49:27 65° ENE 21:49:27 65° ENE 21:53:31 10° NNE
USA 229 DEB 3.7 21:44:43 10° SW 21:50:56 73° NW 21:57:54 10° NE
USA 229 3.7 21:44:49 10° SW 21:51:02 74° NW 21:57:58 10° NE
Cosmos 1727 Rocket 4.0 21:49:08 34° SSW 21:52:07 82° W 21:58:24 10° N
Cosmos 2100 Rocket 3.9 21:45:50 10° N 21:52:15 90° ENE 21:54:16 47° S
Cosmos 2227 Rocket 2.8 21:47:04 10° NW 21:52:32 49° WSW 21:54:10 38° SSW
H-2A R/B 3.5 21:54:16 30° NE 21:54:16 30° NE 21:57:06 10° N
SL-4 R/B 3.5 21:51:04 10° W 21:52:47 23° W 21:52:47 23° W
Cosmos 1980 Rocket 2.3 21:55:14 53° ESE 21:55:21 54° ESE 22:00:50 10° NE
Cosmos 292 Rocket 3.7 21:51:40 10° NNW 21:56:25 72° WSW 21:56:52 66° SSW
Cosmos 1937 Rocket 3.4 21:57:41 10° NNW 22:03:02 80° WSW 22:03:46 65° S
Cosmos 1000 Rocket 4.3 22:01:36 49° S 22:03:26 87° E 22:09:37 10° N
Cosmos 1697 Rocket 2.8 22:00:32 23° SW 22:04:09 72° WNW 22:09:51 10° NNE
Okean 1-7 Rocket 3.6 21:59:39 10° N 22:04:09 77° ENE 22:04:09 77° ENE
Cosmos 2123 Rocket 4.0 22:05:46 54° SE 22:06:59 66° E 22:13:16 10° NNE
MetOp-A 4.3 22:08:40 38° W 22:08:40 38° W 22:12:05 10° NNW
COSMOS 2455 4.1 22:04:18 10° NW 22:09:23 29° WSW 22:11:08 25° SW
CZ-2C R/B 4.2 22:06:40 10° NNE 22:10:46 51° ENE 22:10:46 51° ENE
Cosmos 1602 Rocket 3.6 22:07:14 10° N 22:11:18 76° NNE 22:11:18 76° NNE
Cosmos 1758 Rocket 3.5 22:07:48 10° N 22:12:06 82° NW 22:12:06 82° NW
Cosmos 2228 3.3 22:14:51 61° NNE 22:14:51 61° NNE 22:18:22 10° NNE
Cosmos 1898 Rocket 4.0 22:10:36 10° NNW 22:15:38 47° WSW 22:16:18 45° SW
BlueWalker 3 3.1 22:12:28 10° W 22:15:07 39° WNW 22:15:07 39° WNW
ATLAS 3B R/B 4.3 22:10:14 10° W 22:17:02 38° NNW 22:24:11 10° NE
ARIANE 5 R/B 2.7 22:17:17 75° NE 22:17:17 75° NE 22:21:33 10° NNW
Cosmos 2297 Rocket 4.2 22:16:39 10° WNW 22:20:13 17° W 22:22:24 14° SW
Terra 3.8 22:18:50 16° WSW 22:20:36 20° W 22:24:02 10° NW
CZ-4C R/B 3.6 22:18:36 10° NW 22:25:26 45° WSW 22:27:43 37° SSW
Cosmos 2227 4.5 22:21:13 10° NNW 22:26:53 57° NE 22:27:45 51° E
Cosmos 2369 3.5 22:27:50 73° SE 22:27:56 73° ESE 22:33:35 10° NNE
Lacrosse 4 Rocket 3.7 22:33:41 15° NE 22:33:41 15° NE 22:34:26 10° NE
Cosmos 1825 Rocket 4.0 22:26:21 10° N 22:30:02 54° NNE 22:30:02 54° NNE
Cosmos 1666 4.4 22:27:32 10° N 22:29:23 25° NNE 22:29:23 25° NNE
NOSS 3-2 (C) 4.2 22:23:57 10° NW 22:31:06 68° NE 22:34:32 38° ESE
SL-08 R/B 4.4 22:25:08 10° N 22:31:31 90° W 22:32:34 65° S
H-2A R/B 4.5 22:30:04 10° NE 22:30:48 12° ENE 22:30:48 12° ENE
Meteor 2-8 Rocket 4.4 22:26:32 10° NNW 22:32:42 82° W 22:33:42 64° S
Cosmos 1725 Rocket 3.9 22:27:54 10° NNW 22:34:05 77° W 22:35:10 61° SSW
ATLAS 5 CENTAUR R/B 4.5 22:31:52 10° NW 22:34:06 14° N 22:36:32 10° NNE
Cosmos 2233 Rocket 3.8 22:28:18 10° N 22:34:30 77° E 22:35:19 66° SE
Cosmos 1459 Rocket 4.5 22:29:14 10° NNW 22:35:04 50° W 22:36:35 41° SW
ALOS 2 3.6 22:35:59 39° NE 22:35:59 39° NE 22:39:35 10° N
Cosmos 2219 3.9 22:30:43 10° NW 22:35:57 39° WSW 22:36:27 39° WSW
Cosmos 2061 Rocket 3.9 22:34:30 10° N 22:41:00 88° WSW 22:42:00 66° S
Cosmos 1862 4.3 22:37:51 10° NNW 22:40:37 44° NNW 22:40:37 44° NNW
Cosmos 2263 Rocket 2.6 22:42:20 10° NW 22:47:41 47° WSW 22:47:47 47° WSW
Cosmos 2360 Rocket 4.1 22:51:06 17° E 22:51:06 17° E 22:53:25 10° ENE
Cosmos 1271 Rocket 4.2 22:46:49 10° N 22:49:07 34° N 22:49:07 34° N
SL-19 R/B 4.5 22:46:21 10° NNE 22:51:47 58° E 22:51:47 58° E
USA 267 4.0 22:46:37 10° ENE 22:52:53 50° N 22:59:09 10° WNW
Cosmos 2082 4.3 22:49:00 10° NW 22:54:18 43° WSW 22:54:20 43° WSW
Lacrosse 5 4.2 23:05:57 13° ENE 23:05:57 13° ENE 23:06:37 10° ENE
Cosmos 2333 Rocket 4.0 23:03:47 19° E 23:03:47 19° E 23:06:24 10° NE
Cosmos 2322 Rocket 3.5 23:03:59 27° E 23:03:59 27° E 23:07:26 10° NE
Cosmos 2219 Rocket 4.4 23:05:42 12° E 23:05:42 12° E 23:06:43 10° ENE
NOSS 3-2 (A) 4.2 22:58:44 10° NW 23:05:59 58° SW 23:07:20 52° SSW
Spot 4 4.1 23:09:20 63° NW 23:09:20 63° NW 23:13:31 10° NNW
Cosmos 1726 Rocket 4.4 23:10:52 47° N 23:10:52 47° N 23:13:59 10° N
Meteor 2-19 Rocket 4.4 23:16:07 69° WSW 23:16:42 74° WNW 23:22:50 10° N
Cosmos 1953 Rocket 4.5 23:15:58 10° NNW 23:19:07 45° NNW 23:19:07 45° NNW
SL-16 R/B 2.5 23:22:57 57° ENE 23:22:57 57° ENE 23:27:50 10° NE
Cosmos 1844 3.7 23:17:29 10° NNW 23:23:16 73° ENE 23:23:28 72° ENE
CENTAUR R/B 4.0 23:23:16 10° NW 23:30:46 37° WSW 23:31:56 36° SW
USA 238 DEB 3.9 23:23:38 10° NW 23:30:56 83° NE 23:32:58 54° SE
USA 238 3.9 23:23:43 10° NW 23:31:02 82° NE 23:33:05 53° SE
Cosmos 1125 Rocket 3.6 23:27:06 10° NNW 23:31:49 72° NNW 23:31:49 72° NNW
Cosmos 1844 Rocket 2.6 23:26:48 10° NNW 23:32:08 81° NW 23:32:08 81° NW
Cosmos 1980 Rocket 3.6 23:36:55 22° W 23:39:36 34° NW 23:44:44 10° NNE
PSLV R/B 4.5 23:35:31 10° NNE 23:39:04 50° NE 23:39:04 50° NE
Meteor 2-14 Rocket 4.3 23:41:04 76° ESE 23:41:12 76° E 23:47:22 10° NNE
Cosmos 1072 Rocket 4.4 23:35:41 10° N 23:42:08 87° E 23:42:32 79° SSE
Cosmos 2346 Rocket 4.3 23:42:06 77° SW 23:42:27 81° W 23:48:45 10° N
Cosmos 2151 4.5 23:40:21 10° NNW 23:42:57 31° NW 23:42:57 31° NW
Cosmos 2278 3.7 23:44:40 72° WNW 23:44:48 72° WNW 23:50:30 10° NNE
Timation 2 Rocket 3.9 23:41:03 10° NNW 23:47:45 85° ENE 23:48:19 75° SE
